Temp
7 7 6 6 6 6 5 5 3 -0 -2 -2 -3 -1 -1 -1 -1 -2 -2 -2 -2 -2 -3 -4 -5 -6 -5 -4 -3 -2 -2 -1 -0 0 2 4 3 7
7 6 6 5 5 5 4 4 4 4 -1 -3 -1 -2 -1 -1 -1 -2 -2 -2 -3 -3 -2 -3 -5 -7 -6 -5 -5 -4 -3 -2 -1 0 -1 -2 -2 4
7 6 5 4 5 5 4 4 4 3 2 1 -0 -1 -1 -1 -2 -2 -3 -3 -4 -3 -3 -3 -4 -8 -7 -6 -6 -6 -5 -4 -3 -2 -0 -0 -2 -3
5 4 4 4 4 4 4 3 3 2 2 1 1 -0 -1 -2 -2 -2 -2 -4 -4 -4 -4 -4 -4 -6 -8 -7 -8 -9 -7 -6 -5 -4 -3 -3 -2 -0
3 3 3 4 3 3 3 3 2 2 2 2 1 -0 -1 -2 -2 -2 -3 -4 -4 -5 -5 -5 -5 -6 -8 -8 -8 -8 -10 -8 -7 -5 -5 -5 -4 -3
2 2 2 3 2 2 2 2 1 1 2 1 1 -1 -2 -2 -2 -3 -3 -4 -5 -5 -5 -6 -6 -7 -7 -11 -9 -7 -8 -10 -9 -8 -8 -5 -5 -5
1 1 2 2 2 1 1 0 0 1 1 1 -0 -1 -1 -2 -3 -4 -4 -4 -4 -5 -6 -5 -6 -7 -8 -11 -11 -9 -6 -7 -7 -9 -9 -9 -6 -4
1 1 1 1 1 0 0 -0 0 0 1 -0 -1 -1 -1 -2 -3 -3 -4 -5 -8 -5 -5 -6 -7 -8 -8 -10 -12 -12 -12 -6 -7 -6 -7 -8 -8 -6
-0 0 1 0 0 -0 -0 -1 -0 -0 -0 -0 -1 -1 -1 -1 -2 -3 -3 -4 -5 -5 -5 -8 -7 -8 -9 -9 -10 -12 -13 -13 -10 -8 -7 -7 -8 -9
-1 -1 -0 -1 -1 -1 -1 -1 -1 -1 -1 -1 -1 -2 -2 -2 -3 -3 -4 -4 -4 -5 -5 -9 -7 -8 -9 -9 -10 -11 -11 -13 -14 -12 -10 -9 -8 -8
-2 -2 -1 -2 -1 -1 -2 -2 -1 -1 -2 -2 -2 -2 -3 -3 -3 -4 -4 -5 -6 -6 -6 -7 -8 -8 -9 -9 -10 -10 -11 -11 -12 -12 -13 -9 -8 -8
-3 -2 -2 -3 -2 -2 -2 -2 -2 -2 -2 -2 -3 -3 -4 -4 -4 -4 -4 -5 -5 -7 -7 -7 -8 -8 -11 -9 -10 -10 -10 -11 -11 -12 -12 -12 -11 -12
-3 -3 -3 -3 -3 -3 -3 -4 -3 -3 -3 -3 -4 -5 -5 -5 -5 -5 -5 -6 -6 -7 -7 -8 -8 -9 -9 -10 -10 -10 -10 -10 -11 -11 -11 -12 -12 -12
-3 -3 -3 -4 -4 -4 -4 -4 -4 -4 -3 -4 -5 -6 -6 -6 -6 -6 -6 -7 -7 -7 -8 -8 -9 -9 -10 -11 -11 -11 -11 -12 -12 -12 -12 -12 -12 -12
-4 -4 -5 -5 -5 -6 -6 -5 -5 -5 -5 -5 -6 -7 -7 -7 -8 -8 -8 -8 -9 -9 -9 -9 -10 -10 -11 -11 -12 -12 -12 -13 -12 -13 -14 -13 -13 -14
-6 -5 -6 -6 -6 -6 -7 -7 -6 -6 -6 -6 -7 -8 -8 -8 -8 -9 -9 -9 -10 -10 -10 -11 -11 -11 -12 -12 -13 -14 -14 -15 -16 -16 -16 -16 -15 -15
-5 -6 -6 -7 -7 -8 -8 -8 -7 -7 -7 -8 -8 -9 -9 -9 -10 -10 -10 -10 -11 -12 -12 -12 -12 -12 -12 -13 -15 -15 -15 -16 -16 -16 -16 -16 -16 -17
-6 -7 -7 -7 -7 -8 -8 -8 -8 -8 -8 -9 -9 -10 -10 -10 -10 -10 -11 -11 -13 -13 -13 -13 -13 -14 -15 -15 -14 -16 -16 -16 -17 -17 -17 -16 -16 -17
-8 -8 -8 -8 -8 -9 -9 -8 -9 -9 -9 -9 -10 -10 -11 -11 -11 -11 -11 -12 -12 -14 -14 -14 -14 -14 -15 -14 -16 -15 -16 -17 -17 -17 -17 -17 -17 -17
-9 -9 -9 -9 -9 -9 -9 -9 -9 -10 -10 -10 -11 -11 -11 -11 -11 -12 -12 -13 -13 -15 -15 -15 -15 -15 -16 -16 -16 -17 -16 -17 -18 -17 -17 -17 -17 -15
-9 -9 -10 -10 -10 -9 -10 -10 -10 -11 -11 -11 -12 -12 -12 -12 -12 -12 -13 -13 -13 -15 -16 -16 -16 -15 -16 -16 -17 -17 -18 -17 -17 -18 -18 -18 -18 -17
-9 -9 -9 -10 -10 -10 -10 -11 -11 -11 -12 -12 -12 -12 -12 -12 -13 -13 -13 -14 -15 -16 -16 -16 -16 -16 -17 -17 -17 -18 -18 -19 -18 -17 -17 -17 -18 -19
-9 -10 -10 -10 -10 -10 -11 -11 -12 -12 -13 -13 -13 -13 -13 -13 -13 -14 -14 -14 -15 -16 -16 -17 -16 -16 -17 -17 -17 -19 -18 -18 -18 -19 -19 -18 -18 -18
Height
1493 1497 1502 1505 1506 1506 1507 1509 1511 1514 1518 1517 1516 1516 1515 1512 1511 1509 1507 1505 1503 1499 1494 1490 1484 1478 1471 1464 1459 1454 1446 1438 1428 1419 1407 1394 1388 1381
1490 1497 1501 1502 1503 1504 1506 1507 1508 1509 1510 1513 1514 1514 1513 1511 1508 1508 1506 1505 1503 1499 1495 1489 1484 1478 1471 1465 1460 1454 1447 1439 1431 1423 1414 1401 1394 1384
1488 1496 1498 1499 1501 1502 1504 1505 1507 1509 1507 1509 1511 1512 1512 1510 1508 1506 1505 1504 1502 1498 1494 1490 1484 1479 1473 1467 1462 1456 1448 1441 1433 1427 1420 1412 1399 1391
1489 1493 1495 1497 1498 1501 1501 1501 1504 1507 1506 1507 1508 1510 1510 1510 1508 1505 1503 1503 1501 1497 1495 1490 1485 1480 1475 1470 1465 1459 1451 1444 1438 1431 1425 1419 1410 1404
1487 1491 1493 1494 1497 1499 1500 1501 1501 1504 1505 1504 1507 1509 1509 1508 1508 1506 1503 1502 1500 1498 1495 1490 1485 1481 1476 1472 1467 1460 1455 1447 1442 1435 1430 1425 1418 1410
1483 1488 1491 1493 1495 1498 1498 1500 1501 1501 1502 1504 1505 1508 1509 1507 1507 1507 1504 1502 1500 1498 1495 1491 1486 1482 1478 1474 1470 1464 1457 1452 1447 1440 1434 1429 1424 1417
1480 1485 1489 1491 1492 1494 1497 1499 1501 1500 1501 1502 1503 1506 1507 1505 1507 1507 1504 1501 1499 1497 1495 1491 1487 1484 1480 1477 1473 1467 1462 1456 1451 1445 1439 1433 1428 1421
1478 1483 1488 1490 1490 1491 1495 1497 1499 1500 1500 1501 1502 1504 1504 1503 1505 1505 1503 1502 1502 1497 1493 1491 1488 1485 1482 1478 1476 1471 1465 1461 1456 1451 1445 1439 1433 1429
1475 1479 1484 1487 1487 1490 1493 1496 1497 1499 1496 1499 1501 1501 1502 1502 1503 1503 1501 1500 1499 1496 1493 1491 1488 1485 1483 1480 1477 1474 1470 1465 1460 1456 1451 1445 1441 1437
1473 1476 1480 1484 1483 1487 1490 1491 1495 1496 1497 1496 1498 1499 1500 1499 1500 1500 1499 1498 1496 1494 1492 1492 1488 1485 1483 1481 1478 1474 1471 1467 1465 1461 1455 1451 1446 1441
1470 1472 1476 1480 1482 1484 1488 1490 1491 1490 1493 1495 1495 1498 1498 1497 1499 1498 1497 1496 1495 1493 1491 1489 1488 1485 1483 1480 1478 1475 1471 1468 1465 1462 1459 1454 1449 1446
1467 1469 1472 1476 1478 1482 1483 1486 1488 1487 1488 1491 1493 1495 1496 1496 1496 1497 1495 1494 1493 1491 1490 1489 1486 1485 1484 1480 1478 1476 1473 1470 1467 1463 1460 1457 1454 1451
1464 1466 1469 1472 1477 1478 1480 1484 1486 1485 1484 1487 1490 1492 1493 1494 1493 1493 1493 1492 1491 1490 1489 1487 1485 1484 1483 1481 1478 1475 1473 1470 1468 1465 1461 1459 1456 1453
1460 1463 1466 1468 1471 1476 1479 1481 1483 1483 1480 1483 1486 1489 1491 1491 1491 1491 1490 1490 1488 1488 1487 1486 1485 1483 1481 1480 1478 1476 1473 1470 1468 1466 1463 1461 1458 1455
1456 1459 1463 1466 1469 1473 1474 1479 1480 1480 1478 1480 1483 1486 1487 1488 1488 1489 1488 1488 1488 1486 1485 1485 1483 1482 1481 1479 1478 1475 1473 1471 1469 1466 1464 1461 1459 1457
1453 1454 1458 1460 1465 1469 1471 1475 1476 1476 1476 1476 1479 1482 1483 1484 1484 1485 1485 1485 1485 1486 1485 1483 1482 1481 1480 1478 1477 1476 1474 1473 1470 1468 1466 1463 1461 1459
1447 1450 1455 1458 1461 1464 1469 1471 1471 1472 1473 1474 1476 1479 1481 1482 1482 1482 1482 1482 1482 1483 1482 1482 1480 1479 1479 1478 1477 1475 1474 1473 1471 1468 1467 1466 1463 1460
1442 1448 1453 1454 1457 1460 1465 1466 1467 1468 1469 1471 1473 1475 1476 1479 1479 1479 1480 1481 1479 1481 1480 1479 1479 1478 1478 1476 1475 1475 1475 1473 1470 1468 1466 1465 1464 1461
1440 1446 1449 1450 1455 1457 1459 1461 1463 1464 1466 1468 1469 1471 1473 1474 1476 1475 1475 1476 1477 1478 1477 1477 1477 1477 1478 1477 1475 1473 1473 1472 1470 1468 1466 1464 1461 1459
1438 1442 1445 1447 1451 1453 1454 1456 1458 1460 1462 1463 1466 1467 1468 1469 1470 1473 1473 1473 1474 1474 1475 1474 1474 1474 1475 1475 1473 1472 1469 1469 1468 1467 1465 1462 1459 1456
1434 1437 1441 1444 1447 1449 1450 1451 1454 1456 1458 1459 1462 1464 1465 1464 1463 1467 1468 1468 1470 1471 1472 1472 1470 1470 1470 1470 1469 1469 1467 1465 1464 1463 1461 1459 1457 1455
1431 1434 1437 1439 1441 1444 1446 1448 1450 1452 1453 1457 1457 1459 1460 1460 1462 1461 1464 1464 1466 1468 1468 1467 1466 1466 1466 1466 1467 1465 1465 1462 1461 1459 1458 1456 1454 1452
1429 1431 1433 1435 1437 1440 1441 1443 1446 1449 1451 1452 1453 1454 1457 1456 1457 1458 1459 1460 1462 1463 1463 1463 1462 1462 1462 1462 1461 1461 1460 1459 1457 1456 1455 1452 1450 1448
Wind_Speed
12 11 11 11 10 10 10 10 11 9 5 4 2 5 7 9 10 12 15 18 19 20 20 21 24 27 26 25 25 25 23 28 28 25 22 29 36 3
12 12 14 12 10 9 8 7 7 7 7 6 4 5 7 9 10 11 13 15 17 19 20 22 23 26 27 26 27 26 24 23 26 26 34 38 45 29
12 19 15 13 10 9 9 7 6 7 9 8 6 5 6 8 9 10 12 14 17 19 21 21 22 24 27 27 28 28 27 26 26 25 28 33 43 42
19 17 15 13 12 10 10 9 7 7 8 8 7 4 5 6 7 8 10 12 16 19 20 21 21 21 24 27 28 30 29 28 26 27 27 30 31 34
17 15 15 14 13 12 10 9 9 8 8 7 6 4 3 4 6 7 8 10 13 16 18 21 21 20 23 25 28 28 29 30 28 28 27 28 29 30
18 16 15 14 13 11 11 10 10 9 8 7 6 4 2 3 4 6 8 8 9 13 16 19 20 19 22 26 28 29 28 29 30 29 29 28 27 27
17 17 16 16 14 13 12 11 10 9 9 9 7 4 3 3 3 5 8 8 9 13 13 17 18 18 20 23 26 29 28 27 28 29 30 30 30 28
18 18 17 16 15 13 12 11 11 10 9 9 8 5 3 2 3 5 8 8 4 12 13 15 17 17 19 20 21 25 28 28 26 27 27 30 30 29
19 18 18 18 16 15 14 13 11 10 9 7 6 5 2 2 2 4 6 8 8 11 13 10 15 15 17 18 16 19 23 27 28 26 26 27 27 27
20 19 17 17 16 15 15 14 13 11 9 8 6 5 3 1 1 3 5 6 8 10 11 6 14 14 13 16 16 14 17 20 22 25 25 25 25 26
22 21 19 18 17 16 15 14 14 12 10 8 6 5 4 2 1 3 5 5 6 7 10 9 12 12 9 14 16 17 17 18 20 21 22 22 23 23
24 22 21 19 18 18 16 15 14 12 11 8 7 6 3 1 1 2 3 3 5 5 9 8 11 12 4 10 14 14 14 15 17 19 20 20 21 18
24 23 21 21 19 17 16 15 14 12 11 9 8 7 5 4 1 1 2 3 4 6 8 9 9 10 7 10 13 15 15 16 16 17 18 19 20 20
22 20 21 20 19 19 17 15 13 12 11 11 10 8 6 5 3 2 2 2 3 5 6 8 8 8 8 9 9 13 14 15 17 17 17 17 18 18
22 20 20 19 18 18 18 17 16 13 11 11 10 9 8 6 5 3 2 2 4 5 6 6 7 7 7 7 7 10 12 11 16 16 16 17 17 17
23 23 22 21 20 17 18 17 15 13 12 11 11 11 9 7 6 5 4 3 3 5 6 6 7 7 7 7 7 8 10 7 13 13 13 13 14 14
24 22 22 22 20 19 19 17 15 14 12 12 12 11 10 9 8 7 5 5 4 5 5 7 7 7 7 7 5 7 8 8 11 13 12 10 10 12
22 22 22 20 19 20 20 18 15 14 13 12 12 12 11 10 9 7 7 6 5 7 5 6 6 6 6 8 6 5 7 8 10 11 11 11 10 11
22 22 22 19 19 20 19 17 14 13 12 12 12 13 13 12 10 9 9 8 7 8 7 7 5 4 4 4 7 7 6 8 9 10 11 11 12 13
22 22 21 21 21 19 18 17 16 14 12 12 12 13 13 12 11 10 9 9 8 8 7 7 6 6 4 5 6 7 12 7 8 10 11 13 14 15
23 22 21 21 19 17 17 17 16 14 13 12 12 13 13 12 12 12 11 10 9 8 8 7 9 10 11 10 9 7 8 14 15 14 15 15 12 12
16 19 21 20 19 18 17 17 17 16 16 15 13 12 12 12 12 12 12 10 9 8 8 10 12 11 9 8 8 10 8 11 15 15 15 14 14 10
15 16 17 16 15 15 17 17 16 16 16 15 14 12 13 12 12 12 12 11 11 11 11 10 11 11 10 10 11 9 12 12 12 11 10 14 15 16
Wind_Direction
189 205 208 202 195 185 180 183 173 163 166 161 126 46 33 27 23 26 23 17 16 14 12 13 20 17 16 7 2 1 357 6 10 15 36 48 38 341
185 212 211 198 192 184 176 166 161 166 144 153 113 63 42 34 38 35 26 21 18 19 17 14 21 22 21 18 14 11 10 8 17 14 25 38 39 68
199 209 201 196 190 182 173 162 150 137 132 127 107 79 52 41 37 34 27 22 19 20 19 19 23 29 21 23 22 20 17 21 22 20 24 23 29 55
200 198 195 191 188 183 176 162 151 141 134 127 111 95 71 45 37 32 28 22 18 17 20 23 24 26 24 25 22 22 24 22 26 29 30 27 38 37
193 196 195 190 187 183 175 165 158 152 136 126 125 117 90 46 34 30 26 18 17 19 21 21 23 24 25 22 26 26 26 29 26 26 32 39 40 48
190 193 192 189 186 182 175 171 166 157 147 140 136 134 112 50 32 27 26 21 23 22 21 23 25 24 30 27 28 30 30 32 33 31 30 35 41 43
186 191 192 189 182 179 178 177 173 163 158 152 145 132 96 52 26 18 28 15 18 21 19 20 24 24 27 32 25 27 34 32 35 36 34 34 35 38
191 191 192 188 180 177 179 177 176 174 168 160 149 140 114 80 30 22 25 19 339 8 16 15 20 22 26 30 35 29 27 38 38 37 38 37 36 39
192 193 192 190 184 185 184 185 181 181 171 165 162 147 128 68 23 14 13 10 1 7 14 7 13 15 24 25 31 39 34 30 31 37 39 37 37 41
194 192 191 190 183 184 189 186 186 184 179 171 168 162 162 125 45 10 359 356 358 3 11 4 5 7 11 17 21 21 17 30 35 28 33 38 36 34
195 192 192 192 191 189 189 189 190 181 182 185 190 204 203 197 339 1 6 5 345 352 9 9 2 360 358 7 12 13 14 16 20 25 28 30 31 36
198 195 196 195 195 196 193 198 201 191 185 189 201 209 204 192 272 350 353 5 357 351 357 7 2 6 347 350 358 5 12 13 13 13 18 27 31 34
202 201 199 199 196 196 194 199 202 198 189 195 203 203 204 208 219 315 360 4 8 3 357 3 0 359 360 342 347 354 3 11 18 17 16 23 27 35
207 206 205 202 198 198 200 201 204 202 192 196 201 205 210 220 237 275 322 342 355 359 355 355 357 358 357 352 356 355 357 7 14 19 22 22 24 28
201 202 204 202 203 202 203 210 211 205 200 199 204 208 210 216 228 246 277 329 357 2 359 354 353 353 360 0 354 1 8 358 7 10 11 15 19 21
197 194 198 199 204 204 205 208 205 206 204 204 208 211 213 217 226 235 253 281 319 326 336 347 353 357 354 357 5 4 7 10 5 5 8 6 10 14
197 197 200 201 203 204 204 207 207 207 209 210 211 215 218 221 227 233 237 254 277 289 313 328 339 344 342 348 357 356 355 357 356 357 4 2 0 3
200 203 204 204 207 209 208 210 208 209 212 215 216 219 222 227 230 234 243 251 243 262 279 302 323 337 339 333 325 334 341 343 342 348 354 351 346 347
208 210 211 208 211 212 212 212 212 210 214 220 222 223 226 227 229 233 239 245 247 248 256 275 288 305 316 314 295 314 330 329 335 338 339 339 334 332
215 215 215 213 217 217 214 213 213 215 216 219 225 226 226 227 230 236 242 244 240 241 241 256 267 278 291 289 288 286 311 317 327 327 326 328 325 330
216 218 220 221 223 221 218 213 215 219 221 224 229 232 229 226 223 232 238 242 242 235 229 234 255 279 287 295 296 296 285 301 301 307 315 323 324 327
217 220 218 218 220 222 217 215 219 220 221 226 228 230 233 235 235 232 236 240 241 233 233 246 271 279 284 280 280 284 289 288 299 302 306 310 309 311
212 212 210 209 214 215 214 216 220 223 226 226 230 234 242 240 239 237 238 239 238 241 245 253 267 275 277 279 276 277 285 299 301 306 306 306 303 301